Regional Weather Roundup
Issued by NWS Sioux Falls, SD

Home | Current Version | Previous Version | Text Only | Print | Product List | Glossary On
Versions: 1 2 3 4 5 6 7 8 9 10 11 12 13 14 15 16 17 18 19 20 21 22 23 24 25 26 27 28 29 30 31 32 33 34 35 36 37 38 39 40 41 42 43 44 45 46 47 48 49 50
000
ASUS43 KFSD 250410
RWRFSD

WEATHER ROUNDUP FOR SE SOUTH DAKOTA/SW MINNESOTA/NW IOWA
NATIONAL WEATHER SERVICE SIOUX FALLS SD
1100 PM CDT FRI MAR 24 2017

NOTE: "FAIR" INDICATES FEW OR NO CLOUDS BELOW 12,000 FEET WITH NO
SIGNIFICANT WEATHER AND OR OBSTRUCTIONS TO VISIBILITY.


SDZ038>040-050-052>070-250500-
SOUTHEAST SOUTH DAKOTA

CITY           SKY/WX    TMP DP  RH WIND       PRES   REMARKS
BROOKINGS      PTCLDY    35  32  88 E6        30.13F
CHAMBERLAIN    CLEAR     35  33  92 E3        30.16R
HURON          CLOUDY    34  33  96 VRB3      30.17R
MADISON        CLOUDY    32  32 100 E8        30.13S WCI  25
MITCHELL       CLOUDY    39  35  86 E6        30.16S
SIOUX FALLS    CLOUDY    38  34  85 NE15      30.13S
WINNER         FAIR      36  30  79 SE7       30.14R
YANKTON        CLOUDY    37  34  87 NE13      30.12F
$$

MNZ071-072-080-081-089-090-097-098-250500-
SOUTHWEST MINNESOTA

CITY           SKY/WX    TMP DP  RH WIND       PRES   REMARKS
FAIRMONT       CLOUDY    39  36  89 N12       30.11S
JACKSON        CLOUDY    36  34  93 N15       30.12R FOG
LUVERNE        CLOUDY    34  32  93 NE13G18   30.12F WCI  25
MARSHALL       CLOUDY    37  33  85 E10       30.16F
MONTEVIDEO     CLOUDY    36  34  93 SE6       30.19R
PIPESTONE      CLOUDY    36  30  80 E9        30.12R
REDWOOD FALLS  CLOUDY    38  32  79 NE6       30.17R
TRACY          CLOUDY    37  34  90 NE8       30.16S
WINDOM         CLOUDY    37  36  93 NE12G20   30.14R
WORTHINGTON    CLOUDY    35  34  96 NE13      30.12S FOG     WCI  26
$$

IAZ001>003-012>014-020>022-031-032-NEZ013-014-SDZ071-250500-
NORTHWEST IOWA

CITY           SKY/WX    TMP DP  RH WIND       PRES   REMARKS
CHEROKEE       CLOUDY    40  39  95 NE13      30.07R FOG
ESTHERVILLE    CLOUDY    37  37 100 N15       30.09S
LE MARS        CLOUDY    39  37  93 N13       30.10R
ORANGE CITY    CLOUDY    37  37 100 NE15G21   30.08F FOG
SHELDON        CLOUDY    37  37 100 NE20      30.08F FOG
SIOUX CITY     LGT RAIN  41  39  93 NE12      30.08R FOG
SPENCER        CLOUDY    39  37  92 N18       30.07F
STORM LAKE     CLOUDY    39  39 100 NE22      30.04S FOG
$$

ABBREVIATIONS USED IN REMARKS
   TC - TEMPERATURE IN CELSIUS
  WCI - WIND CHILL INDEX
   HX - HEAT INDEX
  VSB - VISIBILITY




USA.gov is the U.S. government's official web portal to all federal, state and local government web resources and services.